#timestamp,LO_Frequency,Hit,StdDev 
1552802415.1,286046999.1,N
1552802416.0,286046999.1,N
1552802435.8,286046998.0,N
1552802455.7,286046995.1,N
1552802475.5,286046997.2,N
1552802495.3,286046997.9,N
1552802515.2,286046995.7,N
1552802535.9,286046995.6,N
1552802555.7,286046995.7,N
1552802575.6,286046995.2,N
1552802595.4,286046996.9,N
1552802615.2,286046999.1,N
1552802635.1,286046998.3,N
1552802636.0,286046998.3,N
1552802655.8,286047000.3,N
1552802675.7,286047002.7,N
1552802695.5,286047001.1,N
1552802715.3,286047000.0,N
1552802735.2,286047002.4,N
1552802755.0,286047000.2,N
1552802755.9,286047000.2,N
1552802775.8,286046999.9,N
1552802795.6,286047002.5,N
1552802815.4,286047000.7,N
1552802835.3,286046999.4,N
1552802855.1,286046997.7,N
1552802875.8,286046997.6,N
1552802895.7,286046995.2,N
1552802915.5,286046995.0,N
1552802935.4,286046996.3,N
1552802955.2,286046995.4,N
1552802975.0,286046994.5,N
1552802975.9,286046994.5,N
1552802995.8,286046991.1,Y
1552803015.6,286046992.5,P
1552803035.4,286046992.9,N
1552803055.3,286046992.9,N
1552803075.1,286046992.4,Y
1552803095.9,286047001.1,P
1552803115.7,286046998.2,N
1552803135.5,286047004.2,N
1552803155.4,286047001.8,N
1552803175.2,286047002.2,N
1552803195.0,286047001.8,N
1552803196.0,286047001.8,N
1552803215.8,286047002.5,N
1552803235.6,286046999.8,N
1552803255.5,286046998.6,N
1552803275.3,286046999.3,N
1552803295.1,286046996.7,N
1552803315.9,286046997.0,N
1552803335.7,286046995.6,N
1552803355.5,286046997.7,N
1552803375.4,286046993.8,N
1552803395.2,286046993.7,N
1552803415.1,286046994.1,N
1552803416.0,286046994.1,N
1552803435.8,286046992.4,N
1552803455.6,286046992.6,N
1552803475.5,286046992.3,N
1552803495.3,286046991.7,N
1552803515.1,286046994.8,N
1552803535.9,286046993.9,N
1552803555.7,286046997.4,N
1552803575.6,286046998.8,N
1552803595.4,286047000.5,N
1552803615.2,286047000.8,N
1552803635.1,286047001.6,N
1552803636.0,286047001.6,N
1552803655.8,286047002.0,N
1552803675.6,286047002.1,N
1552803695.5,286047001.8,N
1552803715.3,286047003.1,N
1552803735.2,286047001.4,N
1552803755.9,286047001.6,N
1552803775.7,286047011.9,Y
1552803795.6,286047001.5,P
1552803815.4,286047001.5,N
1552803835.2,286047001.8,N
1552803855.1,286047002.1,N
1552803856.0,286047002.1,N
1552803875.8,286047000.0,N
1552803895.7,286047001.5,N
1552803915.5,286046999.9,N
1552803935.3,286047000.3,N
1552803955.2,286047000.1,N
1552803975.0,286047000.3,N
1552803975.9,286047000.3,N
1552803995.8,286047004.3,Y
1552804015.6,286047000.4,P
1552804035.4,286047001.0,P
1552804055.3,286047003.5,P
1552804075.1,286047005.6,Y
1552804095.8,286047006.0,P
1552804115.7,286047001.7,N
1552804135.5,286047004.4,N
1552804155.4,286047001.5,N
1552804175.2,286047001.3,N
1552804195.0,286047002.5,N
1552804195.9,286047002.5,N
1552804215.8,286046999.7,N
1552804235.6,286047000.3,N
1552804255.4,286047001.9,N
1552804275.3,286047005.4,Y
1552804295.1,286047000.8,P
1552804315.9,286046998.5,N
1552804335.7,286046999.0,N
1552804355.5,286047001.0,N
1552804375.4,286046998.6,N
1552804395.2,286046998.8,N
1552804415.0,286046997.5,N
1552804415.9,286046997.5,N
1552804435.8,286046995.2,Y
1552804455.6,286046995.3,P
1552804475.5,286046996.0,N
1552804495.3,286046993.6,P
1552804515.1,286046994.0,N
1552804535.9,286046994.5,N
1552804555.7,286046994.8,N
1552804575.5,286046992.3,Y
1552804595.4,286046996.8,P
1552804615.2,286046993.4,P
1552804635.1,286046998.0,N
1552804636.0,286046998.0,N
1552804655.8,286046994.9,N
1552804675.6,286046997.5,N
1552804695.5,286046995.3,N
1552804715.3,286046995.2,Y
1552804735.1,286046999.0,P
1552804755.9,286046996.5,N
1552804775.7,286046997.7,N
1552804795.6,286046999.5,N
1552804815.4,286047001.2,N
1552804835.2,286047000.7,N
1552804855.1,286046999.1,N
1552804856.0,286046999.1,N
1552804875.8,286047001.1,N
1552804895.6,286047000.5,N
1552804915.5,286047002.7,N
1552804935.3,286047002.5,N
1552804955.2,286047002.1,N
1552804975.9,286047003.6,N
1552804995.7,286047005.9,N
1552805015.6,286047003.3,N
1552805035.4,286047003.8,N
1552805055.2,286047003.6,N
1552805075.1,286047003.6,N
1552805076.0,286047003.6,N
1552805095.8,286047003.5,N
1552805115.7,286047001.9,N
1552805135.5,286047000.7,N
1552805155.3,286047000.3,N
1552805175.2,286047000.9,N
1552805195.0,286046996.6,N
1552805195.9,286046996.6,N
1552805215.7,286046999.2,N
1552805235.6,286046999.3,N
1552805255.5,286046999.0,N
1552805275.3,286046998.3,N
1552805295.1,286046999.3,N
1552805315.9,286047001.0,N
1552805335.7,286047000.6,N
1552805355.5,286047000.4,N
1552805375.4,286047000.5,N
1552805395.2,286046999.6,N
1552805415.1,286046995.1,N
1552805416.0,286046995.1,N
1552805435.8,286046998.0,N
1552805455.6,286046995.0,N
1552805475.5,286046995.1,N
1552805495.3,286046995.0,N
1552805515.1,286046996.7,N
1552805535.9,286046997.8,N
1552805555.7,286046995.5,N
1552805575.6,286046997.5,N
1552805595.4,286046995.4,N
1552805615.2,286046997.2,N
1552805635.1,286046999.4,N
1552805636.0,286046999.4,N
1552805655.8,286046997.5,N
1552805675.6,286046999.6,N
1552805695.5,286047000.0,N
1552805715.3,286047002.8,N
1552805735.2,286047000.2,N
1552805755.9,286046998.1,N
1552805775.7,286046998.7,N
1552805795.6,286047000.9,N
1552805815.4,286046998.3,N
1552805835.2,286046998.4,N
1552805855.1,286046999.9,N
1552805856.0,286046999.9,N
1552805875.8,286046999.7,N
1552805895.7,286047001.6,N
1552805915.5,286047001.9,N
1552805935.3,286047002.4,N
1552805955.2,286047002.6,N
1552805975.0,286047001.0,N
1552805975.9,286047001.0,N
1552805995.8,286046998.2,N
